{"data":{"norad_id":60536,"epoch":"2026-09-18T04:08:16.268928Z","epoch_age_seconds":215810,"freshness":"STALE","line1":"1 60536U 24149BW  26261.17241052  .00007622  00000+0  43775-3 0  9994","line2":"2 60536  97.6831 344.6600 0002691 137.3264 222.8176 15.12805485114534","mean_motion":15.12805485,"eccentricity":0.0002691,"inclination_deg":97.6831,"raan_deg":344.66,"arg_perigee_deg":137.3264,"mean_anomaly_deg":222.8176,"bstar":0.00043775,"rev_number":11453,"period_min":95.187386235581,"perigee_km":525.79062533363,"apogee_km":529.50731934394,"semimajor_km":6905.7859723388,"source":"CELESTRAK","updated_at":"2026-09-20T09:00:34.871442Z"}}